Home   Weather   Colombia   Past weeks
Flag for Mexico

Past Weather in Colombia, Nuevo León, Mexico — Yesterday and Last 2 Weeks

Now
54 °F

Clear.


Feels Like: 53 °F
Forecast: 77 / 56 °F
Wind: 5 mph from South

Location: Laredo International Airport

Current Time: Jan 17, 2019 at 11:42:00 pm

Latest Report: Jan 17, 2019 at 10:56 pm


Visibility: 8 mi

Pressure: 30.19 "Hg

Humidity: 93%

Dew Point: 52 °F

Location of ColombiaLocation

Past Weather in Colombia — Graph

°F

Colombia Temperature Yesterday

Maximum temperature yesterday: 58 °F (at 3:56 pm)
Minimum temperature yesterday: 50 °F (at 12:29 am)
Average temperature yesterday: 54 °F

High & Low Weather Summary for the Past Weeks

 TemperatureHumidityPressure
High80 °F (Jan 6, 3:56 pm)100% (Jan 8, 5:56 am)30.50 "Hg (Jan 8, 5:56 am)
Low35 °F (Jan 4, 5:56 am)16% (Jan 4, 4:56 pm)29.94 "Hg (Jan 6, 1:56 pm)
Average57 °F75%30.21 "Hg
* Reported Jan 2 9:56 pm — Jan 17 9:56 pm, Colombia. Weather by CustomWeather, © 2019

Note: Actual official high and low records may vary slightly from our data, if they occured in-between our weather recording intervals... More about our weather records

Advertising

Colombia Weather History for the Previous 24 Hours

Scroll right to see more
 ConditionsComfort  
Time TempWeatherWind HumidityBarometerVisibility
9:56 pm
Thu, Jan 17
56 °FClear.5 mph90%30.17 "Hg9 mi
8:56 pm56 °FClear.5 mph93%30.18 "Hg9 mi
7:56 pm57 °FPassing clouds.3 mph90%30.17 "Hg10 mi
6:56 pm59 °FOvercast.3 mph87%30.18 "Hg10 mi
5:56 pm58 °FOvercast.3 mph87%30.17 "Hg10 mi
4:56 pm59 °FOvercast.5 mph84%30.18 "Hg10 mi
3:56 pm60 °FOvercast.No wind80%30.19 "Hg10 mi
2:56 pm59 °FOvercast.5 mph81%30.19 "Hg10 mi
2:10 pm57 °FOvercast.3 mph88%30.17 "Hg10 mi
1:56 pm58 °FLow clouds.3 mph84%30.22 "Hg10 mi
12:56 pm57 °FLow clouds.6 mph87%30.26 "Hg10 mi
11:56 am56 °FLow clouds.5 mph90%30.30 "Hg10 mi
10:56 am56 °FLow clouds.6 mph90%30.31 "Hg10 mi
9:56 am55 °FLow clouds.5 mph93%30.30 "Hg8 mi
9:28 am54 °FFog.6 mph100%30.24 "Hg4 mi
9:02 am54 °FFog.7 mph100%30.23 "Hg2 mi
7:56 am54 °FFog.6 mph97%30.26 "Hg1 mi
7:38 am54 °FFog.6 mph100%30.20 "Hg1 mi
6:56 am55 °FFog.No wind93%30.24 "Hg6 mi
5:56 am55 °FLow clouds.No wind93%30.22 "Hg8 mi
4:56 am55 °FLow clouds.No wind93%30.22 "Hg9 mi
3:56 am55 °FLow clouds.No wind93%30.22 "Hg10 mi
2:56 am55 °FLow clouds.No wind93%30.22 "Hg10 mi
1:56 am55 °FLow clouds.6 mph93%30.23 "Hg10 mi
12:56 am55 °FLow clouds.8 mph93%30.23 "Hg10 mi
11:56 pm
Wed, Jan 16
55 °FLow clouds.8 mph93%30.25 "Hg10 mi
Weather by CustomWeather, © 2019

See weather overview